This is the latest recevied weather packets stored in our database for station/object WB4YDL. If no packets are shown the sender has not sent any weather packets the latest 10 day(s).
| Time | Temp. | Humidity | Pressure | Rain* | Wind** | Luminosity | Snow |
|---|---|---|---|---|---|---|---|
| 1777857988 | 18.33° C | 49% | 1008.8 hPa | 0 mm | - | 0 W/m² | - |
| 1777857686 | 18.89° C | 48% | 1008.6 hPa | 0 mm | - | 0 W/m² | - |
| 1777857382 | 18.89° C | 48% | 1008.8 hPa | 0 mm | - | 0 W/m² | - |
| 1777857079 | 18.89° C | 47% | 1008.8 hPa | 0 mm | - | 0 W/m² | - |
| 1777856774 | 18.89° C | 47% | 1008.7 hPa | 0 mm | - | 0 W/m² | - |
| 1777856471 | 18.89° C | 47% | 1008.7 hPa | 0 mm | - | 0 W/m² | - |
| 1777856168 | 19.44° C | 48% | 1008.7 hPa | 0 mm | - | 1 W/m² | - |
| 1777855865 | 19.44° C | 47% | 1008.7 hPa | 0 mm | - | 2 W/m² | - |
| 1777855563 | 19.44° C | 47% | 1008.5 hPa | 0 mm | - | 3 W/m² | - |
| 1777855260 | 19.44° C | 46% | 1008.5 hPa | 0 mm | - | 5 W/m² | - |
| 1777854955 | 20° C | 45% | 1008.6 hPa | 0 mm | - | 8 W/m² | - |
| 1777854652 | 20° C | 45% | 1008.7 hPa | 0 mm | - | 11 W/m² | - |
| 1777854349 | 20° C | 44% | 1008.8 hPa | 0 mm | - | 16 W/m² | - |
| 1777854047 | 20.56° C | 44% | 1008.8 hPa | 0 mm | - | 20 W/m² | - |
| 1777853744 | 20.56° C | 43% | 1008.7 hPa | 0 mm | - | 25 W/m² | - |
| 1777853440 | 20.56° C | 43% | 1008.8 hPa | 0 mm | - | 30 W/m² | - |
| 1777853138 | 20.56° C | 43% | 1008.9 hPa | 0 mm | - | 34 W/m² | - |
| 1777852835 | 20.56° C | 42% | 1009 hPa | 0 mm | - | 40 W/m² | - |
| 1777852533 | 21.11° C | 42% | 1008.9 hPa | 0 mm | - | 46 W/m² | - |
| 1777852229 | 21.11° C | 42% | 1009.1 hPa | 0 mm | - | 53 W/m² | - |
| 1777851927 | 21.11° C | 43% | 1008.9 hPa | 0 mm | - | 60 W/m² | - |
| 1777851626 | 21.11° C | 43% | 1009.1 hPa | 0 mm | - | 65 W/m² | - |
| 1777851321 | 21.11° C | 42% | 1009.3 hPa | 0 mm | - | 74 W/m² | - |
| 1777851017 | 21.67° C | 41% | 1009.4 hPa | 0 mm | - | 84 W/m² | - |
| 1777850715 | 21.67° C | 41% | 1009.2 hPa | 0 mm | - | 94 W/m² | - |
* Rain latest hour (hover to see other rain measurements)
** Current wind speed in m/s (hover to see current wind gust speed)